TPC2022 KMEM-KLIT

Flight info

Callsign TPC2022
Flight time 1h 19m
Altitude 8000
Route ELVIS4 WONEE LIT
Aircraft C172/L-SD/S

Departure

Time 2026-05-08 04:59
Airport Memphis International Airport (KMEM)

Arrival

Time 2026-05-08 06:18
Airport Bill & Hillary Clinton National Airport/Adams Field (KLIT)
Time Latitude Longitude Altitude Speed Heading
2026-05-08 04:15 35.05454 -89.98003 264 ft 0 kts 270°
2026-05-08 04:50 35.05455 -89.98010 264 ft 4 kts 294°
2026-05-08 04:50 35.05474 -89.97998 261 ft 0 kts 121°
2026-05-08 04:50 35.05456 -89.98000 264 ft 8 kts 231°
2026-05-08 04:51 35.05474 -89.98115 262 ft 20 kts 288°
2026-05-08 04:51 35.05503 -89.98307 259 ft 23 kts 275°
2026-05-08 04:51 35.05566 -89.98427 258 ft 12 kts 279°
2026-05-08 04:51 35.05552 -89.98505 258 ft 9 kts 201°
2026-05-08 04:52 35.05424 -89.98509 264 ft 28 kts 181°
2026-05-08 04:52 35.05179 -89.98513 271 ft 37 kts 180°
2026-05-08 04:52 35.04910 -89.98512 277 ft 38 kts 179°
2026-05-08 04:52 35.04639 -89.98507 281 ft 38 kts 178°
2026-05-08 04:53 35.04364 -89.98501 284 ft 39 kts 179°
2026-05-08 04:53 35.04084 -89.98496 287 ft 40 kts 179°
2026-05-08 04:53 35.03807 -89.98490 292 ft 39 kts 179°
2026-05-08 04:53 35.03534 -89.98480 297 ft 38 kts 179°
2026-05-08 04:54 35.03263 -89.98475 304 ft 37 kts 178°
2026-05-08 04:54 35.03011 -89.98468 311 ft 33 kts 179°
2026-05-08 04:54 35.02803 -89.98462 317 ft 24 kts 179°
2026-05-08 04:54 35.02664 -89.98460 321 ft 19 kts 179°
2026-05-08 04:55 35.02519 -89.98479 325 ft 17 kts 234°
2026-05-08 04:55 35.02512 -89.98508 324 ft 0 kts 263°
2026-05-08 04:55 35.02505 -89.98533 324 ft 10 kts 234°
2026-05-08 04:55 35.02424 -89.98566 325 ft 12 kts 214°
2026-05-08 04:56 35.02409 -89.98583 325 ft 0 kts 226°
2026-05-08 04:57 35.02402 -89.98605 325 ft 8 kts 260°
2026-05-08 04:57 35.02404 -89.98680 325 ft 8 kts 312°
2026-05-08 04:58 35.02438 -89.98692 324 ft 0 kts 355°
2026-05-08 04:58 35.02493 -89.98692 323 ft 33 kts 358°
2026-05-08 04:59 35.02911 -89.98698 362 ft 76 kts
2026-05-08 04:59 35.03444 -89.98666 638 ft 74 kts
2026-05-08 04:59 35.03969 -89.98622 874 ft 78 kts 355°
2026-05-08 04:59 35.04441 -89.98920 1126 ft 78 kts 326°
2026-05-08 05:00 35.04904 -89.99283 1382 ft 78 kts 328°
2026-05-08 05:00 35.05359 -89.99635 1641 ft 77 kts 328°
2026-05-08 05:00 35.05814 -89.99990 1898 ft 77 kts 329°
2026-05-08 05:00 35.06254 -90.00356 2143 ft 77 kts 328°
2026-05-08 05:01 35.06647 -90.00805 2381 ft 81 kts 296°
2026-05-08 05:01 35.06567 -90.01484 2607 ft 86 kts 234°
2026-05-08 05:01 35.06109 -90.01959 2848 ft 86 kts 220°
2026-05-08 05:01 35.05655 -90.02420 3081 ft 87 kts 224°
2026-05-08 05:02 35.05219 -90.02930 3365 ft 84 kts 227°
2026-05-08 05:02 35.04808 -90.03435 3622 ft 85 kts 229°
2026-05-08 05:02 35.04381 -90.03954 3881 ft 86 kts 229°
2026-05-08 05:02 35.03951 -90.04459 4127 ft 88 kts 226°
2026-05-08 05:03 35.03484 -90.04938 4406 ft 86 kts 223°
2026-05-08 05:03 35.03011 -90.05389 4653 ft 87 kts 222°
2026-05-08 05:03 35.02533 -90.05843 4899 ft 88 kts 222°
2026-05-08 05:03 35.02025 -90.06274 5150 ft 89 kts 219°
2026-05-08 05:04 35.01511 -90.06702 5401 ft 89 kts 219°
2026-05-08 05:04 35.01004 -90.07130 5636 ft 90 kts 221°
2026-05-08 05:04 35.00497 -90.07569 5880 ft 88 kts 230°
2026-05-08 05:04 35.00309 -90.08203 6149 ft 77 kts 265°
2026-05-08 05:05 35.00104 -90.08824 6371 ft 82 kts 251°
2026-05-08 05:05 34.99869 -90.09459 6607 ft 80 kts 262°
2026-05-08 05:05 34.99749 -90.10098 6840 ft 78 kts 264°
2026-05-08 05:05 34.99632 -90.10767 7052 ft 80 kts 266°
2026-05-08 05:06 34.99538 -90.11418 7278 ft 79 kts 268°
2026-05-08 05:06 34.99456 -90.12090 7489 ft 79 kts 269°
2026-05-08 05:06 34.99376 -90.12750 7716 ft 78 kts 267°
2026-05-08 05:06 34.99274 -90.13407 7916 ft 79 kts 268°
2026-05-08 05:07 34.99199 -90.14143 7950 ft 96 kts 269°
2026-05-08 05:07 34.99089 -90.15011 7944 ft 109 kts 266°
2026-05-08 05:07 34.98965 -90.15931 7949 ft 109 kts 265°
2026-05-08 05:07 34.98827 -90.16839 7935 ft 109 kts 265°
2026-05-08 05:08 34.98682 -90.17752 7949 ft 108 kts 265°
2026-05-08 05:08 34.98545 -90.18654 7947 ft 109 kts 266°
2026-05-08 05:08 34.98400 -90.19570 7946 ft 110 kts 264°
2026-05-08 05:08 34.98256 -90.20504 7912 ft 112 kts 264°
2026-05-08 05:09 34.98099 -90.21426 7925 ft 110 kts 264°
2026-05-08 05:09 34.97957 -90.22361 7905 ft 112 kts 267°
2026-05-08 05:09 34.97812 -90.23287 7911 ft 111 kts 265°
2026-05-08 05:09 34.97683 -90.24227 7911 ft 111 kts 266°
2026-05-08 05:10 34.97559 -90.25155 7912 ft 111 kts 266°
2026-05-08 05:10 34.97302 -90.27027 7911 ft 111 kts 266°
2026-05-08 05:10 34.97172 -90.27957 7910 ft 111 kts 266°
2026-05-08 05:11 34.97041 -90.28892 7912 ft 111 kts 265°
2026-05-08 05:11 34.96910 -90.29818 7909 ft 111 kts 265°
2026-05-08 05:11 34.96777 -90.30753 7909 ft 111 kts 265°
2026-05-08 05:11 34.96643 -90.31682 7908 ft 110 kts 265°
2026-05-08 05:12 34.96510 -90.32602 7906 ft 110 kts 266°
2026-05-08 05:12 34.96376 -90.33525 7907 ft 110 kts 266°
2026-05-08 05:12 34.96241 -90.34449 7908 ft 109 kts 265°
2026-05-08 05:12 34.96107 -90.35367 7908 ft 109 kts 265°
2026-05-08 05:13 34.95974 -90.36281 7909 ft 109 kts 265°
2026-05-08 05:13 34.95838 -90.37196 7909 ft 110 kts 265°
2026-05-08 05:13 34.95702 -90.38118 7907 ft 110 kts 265°
2026-05-08 05:13 34.95567 -90.39038 7906 ft 111 kts 265°
2026-05-08 05:14 34.95430 -90.39970 7906 ft 111 kts 265°
2026-05-08 05:14 34.95291 -90.40905 7906 ft 111 kts 265°
2026-05-08 05:14 34.95154 -90.41840 7906 ft 111 kts 265°
2026-05-08 05:14 34.95015 -90.42770 7905 ft 111 kts 265°
2026-05-08 05:15 34.94879 -90.43693 7904 ft 110 kts 265°
2026-05-08 05:15 34.94741 -90.44627 7903 ft 110 kts 265°
2026-05-08 05:15 34.94604 -90.45549 7903 ft 110 kts 265°
2026-05-08 05:15 34.94467 -90.46468 7901 ft 110 kts 265°
2026-05-08 05:16 34.94331 -90.47390 7902 ft 110 kts 265°
2026-05-08 05:16 34.94192 -90.48315 7901 ft 110 kts 265°
2026-05-08 05:16 34.94055 -90.49237 7901 ft 110 kts 265°
2026-05-08 05:16 34.93919 -90.50156 7902 ft 110 kts 265°
2026-05-08 05:17 34.93780 -90.51086 7902 ft 111 kts 265°
2026-05-08 05:17 34.93641 -90.52020 7901 ft 111 kts 265°
2026-05-08 05:17 34.93501 -90.52951 7900 ft 111 kts 265°
2026-05-08 05:17 34.93364 -90.53873 7900 ft 111 kts 265°
2026-05-08 05:18 34.93222 -90.54815 7900 ft 111 kts 265°
2026-05-08 05:18 34.93084 -90.55740 7900 ft 111 kts 265°
2026-05-08 05:18 34.92943 -90.56681 7899 ft 111 kts 265°
2026-05-08 05:18 34.92803 -90.57617 7901 ft 111 kts 265°
2026-05-08 05:19 34.92663 -90.58553 7899 ft 111 kts 265°
2026-05-08 05:19 34.92525 -90.59475 7901 ft 111 kts 265°
2026-05-08 05:19 34.92384 -90.60415 7901 ft 111 kts 265°
2026-05-08 05:19 34.92245 -90.61332 7903 ft 110 kts 265°
2026-05-08 05:20 34.92106 -90.62260 7901 ft 111 kts 265°
2026-05-08 05:20 34.91966 -90.63191 7899 ft 110 kts 265°
2026-05-08 05:20 34.91827 -90.64113 7900 ft 110 kts 265°
2026-05-08 05:20 34.91687 -90.65048 7899 ft 111 kts 264°
2026-05-08 05:21 34.91543 -90.65971 7903 ft 111 kts 264°
2026-05-08 05:21 34.91399 -90.66899 7901 ft 112 kts 264°
2026-05-08 05:21 34.91255 -90.67827 7903 ft 112 kts 264°
2026-05-08 05:21 34.91109 -90.68770 7902 ft 112 kts 264°
2026-05-08 05:22 34.90966 -90.69695 7902 ft 112 kts 264°
2026-05-08 05:22 34.90822 -90.70634 7902 ft 112 kts 264°
2026-05-08 05:22 34.90681 -90.71558 7906 ft 111 kts 264°
2026-05-08 05:22 34.90534 -90.72475 7943 ft 108 kts 264°
2026-05-08 05:23 34.90391 -90.73374 7951 ft 109 kts 264°
2026-05-08 05:23 34.90249 -90.74290 7955 ft 109 kts 265°
2026-05-08 05:23 34.90097 -90.75204 7941 ft 112 kts 263°
2026-05-08 05:23 34.89938 -90.76138 7948 ft 112 kts 264°
2026-05-08 05:24 34.89780 -90.77076 7944 ft 112 kts 263°
2026-05-08 05:24 34.89617 -90.78008 7947 ft 112 kts 264°
2026-05-08 05:24 34.89464 -90.78936 7956 ft 112 kts 264°
2026-05-08 05:24 34.89317 -90.79870 7968 ft 112 kts 265°
2026-05-08 05:25 34.89172 -90.80819 7965 ft 113 kts 264°
2026-05-08 05:25 34.89080 -90.81759 7968 ft 112 kts 267°
2026-05-08 05:25 34.88963 -90.82707 7969 ft 113 kts 266°
2026-05-08 05:25 34.88834 -90.83659 7957 ft 114 kts 266°
2026-05-08 05:26 34.88713 -90.84608 7956 ft 114 kts 266°
2026-05-08 05:26 34.88580 -90.85558 7963 ft 113 kts 264°
2026-05-08 05:26 34.88437 -90.86491 7979 ft 112 kts 264°
2026-05-08 05:26 34.88282 -90.87431 7979 ft 112 kts 264°
2026-05-08 05:27 34.88123 -90.88365 7994 ft 111 kts 264°
2026-05-08 05:27 34.87968 -90.89298 7958 ft 114 kts 263°
2026-05-08 05:27 34.87801 -90.90234 7991 ft 112 kts 263°
2026-05-08 05:27 34.87635 -90.91165 7978 ft 113 kts 263°
2026-05-08 05:28 34.87473 -90.92114 7972 ft 113 kts 263°
2026-05-08 05:28 34.87303 -90.93038 7985 ft 112 kts 263°
2026-05-08 05:28 34.87124 -90.93977 7967 ft 113 kts 263°
2026-05-08 05:28 34.86953 -90.94911 7964 ft 113 kts 263°
2026-05-08 05:29 34.86775 -90.95861 7960 ft 113 kts 262°
2026-05-08 05:29 34.86604 -90.96791 7961 ft 113 kts 263°
2026-05-08 05:29 34.86424 -90.97744 7932 ft 115 kts 262°
2026-05-08 05:29 34.86237 -90.98682 7950 ft 113 kts 262°
2026-05-08 05:30 34.86061 -90.99622 7941 ft 114 kts 263°
2026-05-08 05:30 34.85896 -91.00564 7930 ft 114 kts 264°
2026-05-08 05:30 34.85731 -91.01508 7928 ft 113 kts 263°
2026-05-08 05:30 34.85576 -91.02436 7947 ft 111 kts 264°
2026-05-08 05:31 34.85414 -91.03374 7924 ft 114 kts 263°
2026-05-08 05:31 34.85249 -91.04313 7943 ft 111 kts 264°
2026-05-08 05:31 34.85102 -91.05231 7980 ft 109 kts 265°
2026-05-08 05:31 34.84963 -91.06143 7971 ft 111 kts 265°
2026-05-08 05:32 34.84830 -91.07067 7994 ft 110 kts 266°
2026-05-08 05:32 34.84687 -91.07991 8010 ft 110 kts 264°
2026-05-08 05:32 34.84535 -91.08909 8038 ft 109 kts 264°
2026-05-08 05:32 34.84389 -91.09815 8067 ft 109 kts 264°
2026-05-08 05:33 34.84236 -91.10735 8038 ft 113 kts 264°
2026-05-08 05:33 34.84125 -91.11672 8023 ft 112 kts 272°
2026-05-08 05:33 34.84107 -91.12631 8030 ft 111 kts 273°
2026-05-08 05:33 34.84105 -91.13579 8032 ft 110 kts 275°
2026-05-08 05:34 34.84107 -91.14500 8030 ft 110 kts 274°
2026-05-08 05:34 34.84087 -91.15444 7990 ft 113 kts 272°
2026-05-08 05:34 34.84078 -91.16405 7978 ft 112 kts 274°
2026-05-08 05:34 34.84072 -91.17357 7968 ft 112 kts 272°
2026-05-08 05:35 34.84038 -91.18317 7942 ft 113 kts 271°
2026-05-08 05:35 34.83994 -91.19257 7954 ft 112 kts 271°
2026-05-08 05:35 34.83985 -91.20213 7927 ft 112 kts 277°
2026-05-08 05:35 34.84028 -91.21149 7934 ft 111 kts 277°
2026-05-08 05:36 34.84086 -91.22088 7940 ft 110 kts 278°
2026-05-08 05:36 34.84131 -91.23021 7941 ft 110 kts 277°
2026-05-08 05:36 34.84173 -91.23951 7950 ft 109 kts 277°
2026-05-08 05:36 34.84220 -91.24889 7945 ft 110 kts 277°
2026-05-08 05:37 34.84265 -91.25812 7948 ft 110 kts 277°
2026-05-08 05:37 34.84298 -91.26756 7914 ft 112 kts 275°
2026-05-08 05:37 34.84297 -91.27698 7939 ft 110 kts 273°
2026-05-08 05:37 34.84284 -91.28632 7933 ft 110 kts 273°
2026-05-08 05:38 34.84276 -91.29563 7933 ft 110 kts 274°
2026-05-08 05:38 34.84268 -91.30495 7915 ft 111 kts 274°
2026-05-08 05:38 34.84273 -91.31427 7950 ft 108 kts 275°
2026-05-08 05:38 34.84283 -91.32341 7954 ft 108 kts 275°
2026-05-08 05:39 34.84292 -91.33257 7970 ft 108 kts 275°
2026-05-08 05:39 34.84296 -91.34180 7987 ft 107 kts 274°
2026-05-08 05:39 34.84283 -91.35095 7989 ft 108 kts 274°
2026-05-08 05:39 34.84278 -91.36005 7976 ft 109 kts 275°
2026-05-08 05:40 34.84286 -91.36943 7972 ft 109 kts 275°
2026-05-08 05:40 34.84302 -91.37869 7965 ft 109 kts 275°
2026-05-08 05:40 34.84290 -91.38797 7952 ft 110 kts 272°
2026-05-08 05:40 34.84257 -91.39739 7941 ft 110 kts 272°
2026-05-08 05:41 34.84215 -91.40669 7937 ft 110 kts 271°
2026-05-08 05:41 34.84176 -91.41595 7943 ft 109 kts 273°
2026-05-08 05:41 34.84167 -91.42532 7922 ft 110 kts 275°
2026-05-08 05:41 34.84182 -91.43449 7933 ft 108 kts 275°
2026-05-08 05:42 34.84199 -91.44376 7914 ft 110 kts 276°
2026-05-08 05:42 34.84184 -91.45306 7927 ft 109 kts 272°
2026-05-08 05:42 34.84150 -91.46235 7929 ft 109 kts 272°
2026-05-08 05:42 34.84114 -91.47176 7912 ft 111 kts 272°
2026-05-08 05:43 34.84084 -91.48108 7924 ft 110 kts 272°
2026-05-08 05:43 34.84054 -91.49046 7919 ft 110 kts 271°
2026-05-08 05:43 34.83981 -91.49979 7919 ft 110 kts 270°
2026-05-08 05:43 34.83934 -91.50918 7874 ft 112 kts 274°
2026-05-08 05:44 34.83926 -91.51869 7889 ft 110 kts 274°
2026-05-08 05:44 34.83916 -91.52791 7907 ft 108 kts 274°
2026-05-08 05:44 34.83902 -91.53700 7927 ft 107 kts 273°
2026-05-08 05:44 34.83882 -91.54600 7946 ft 106 kts 273°
2026-05-08 05:45 34.83860 -91.55508 7963 ft 106 kts 272°
2026-05-08 05:45 34.83835 -91.56412 7960 ft 108 kts 273°
2026-05-08 05:45 34.83807 -91.57333 7959 ft 108 kts 272°
2026-05-08 05:45 34.83776 -91.58248 7958 ft 109 kts 272°
2026-05-08 05:46 34.83743 -91.59178 7958 ft 109 kts 272°
2026-05-08 05:46 34.83714 -91.60109 7959 ft 109 kts 272°
2026-05-08 05:46 34.83683 -91.61034 7959 ft 109 kts 272°
2026-05-08 05:46 34.83651 -91.61968 7958 ft 109 kts 272°
2026-05-08 05:47 34.83616 -91.62892 7958 ft 109 kts 272°
2026-05-08 05:47 34.83576 -91.63823 7958 ft 110 kts 272°
2026-05-08 05:47 34.83533 -91.64753 7958 ft 110 kts 272°
2026-05-08 05:47 34.83488 -91.65672 7872 ft 110 kts 271°
2026-05-08 05:48 34.83444 -91.66619 7712 ft 113 kts 271°
2026-05-08 05:48 34.83407 -91.67576 7555 ft 112 kts 272°
2026-05-08 05:48 34.83374 -91.68527 7419 ft 111 kts 272°
2026-05-08 05:48 34.83341 -91.69473 7286 ft 111 kts 272°
2026-05-08 05:49 34.83317 -91.70403 7156 ft 110 kts 273°
2026-05-08 05:49 34.83302 -91.71336 7029 ft 110 kts 274°
2026-05-08 05:49 34.83254 -91.72269 6895 ft 111 kts 270°
2026-05-08 05:49 34.83188 -91.73206 6771 ft 111 kts 271°
2026-05-08 05:50 34.83137 -91.74152 6652 ft 110 kts 272°
2026-05-08 05:50 34.83101 -91.75082 6529 ft 111 kts 273°
2026-05-08 05:50 34.83085 -91.76025 6396 ft 111 kts 274°
2026-05-08 05:50 34.83057 -91.76975 6280 ft 111 kts 272°
2026-05-08 05:51 34.83025 -91.77915 6150 ft 113 kts 272°
2026-05-08 05:51 34.82997 -91.78873 6051 ft 111 kts 272°
2026-05-08 05:51 34.82948 -91.79804 5937 ft 112 kts 270°
2026-05-08 05:51 34.82897 -91.80763 5812 ft 112 kts 271°
2026-05-08 05:52 34.82863 -91.81696 5698 ft 111 kts 272°
2026-05-08 05:52 34.82800 -91.82639 5587 ft 111 kts 269°
2026-05-08 05:52 34.82722 -91.83576 5476 ft 111 kts 268°
2026-05-08 05:52 34.82638 -91.84510 5374 ft 110 kts 268°
2026-05-08 05:53 34.82554 -91.85435 5274 ft 112 kts 268°
2026-05-08 05:53 34.82484 -91.86407 5160 ft 114 kts 269°
2026-05-08 05:53 34.82449 -91.87355 5083 ft 111 kts 271°
2026-05-08 05:53 34.82408 -91.88289 4994 ft 109 kts 268°
2026-05-08 05:54 34.82353 -91.89216 4887 ft 110 kts 269°
2026-05-08 05:54 34.82325 -91.90140 4783 ft 110 kts 270°
2026-05-08 05:54 34.82287 -91.91093 4637 ft 113 kts 268°
2026-05-08 05:54 34.82225 -91.92051 4531 ft 112 kts 266°
2026-05-08 05:55 34.82155 -91.92995 4401 ft 114 kts 265°
2026-05-08 05:55 34.82072 -91.93942 4318 ft 110 kts 265°
2026-05-08 05:55 34.81997 -91.94875 4232 ft 110 kts 266°
2026-05-08 05:55 34.81921 -91.95809 4155 ft 109 kts 266°
2026-05-08 05:56 34.81855 -91.96732 4042 ft 111 kts 266°
2026-05-08 05:56 34.81774 -91.97672 3985 ft 114 kts 264°
2026-05-08 05:56 34.81672 -91.98624 4035 ft 113 kts 263°
2026-05-08 05:56 34.81562 -91.99570 4001 ft 112 kts 265°
2026-05-08 05:57 34.81511 -92.00505 3981 ft 111 kts 268°
2026-05-08 05:57 34.81533 -92.01434 3990 ft 108 kts 273°
2026-05-08 05:57 34.81570 -92.02353 3972 ft 111 kts 272°
2026-05-08 05:57 34.81602 -92.03295 3999 ft 109 kts 271°
2026-05-08 05:58 34.81603 -92.04218 4018 ft 109 kts 267°
2026-05-08 05:58 34.81546 -92.05150 4021 ft 110 kts 266°
2026-05-08 05:58 34.81479 -92.06074 4031 ft 111 kts 265°
2026-05-08 05:58 34.81401 -92.07004 4052 ft 110 kts 265°
2026-05-08 05:59 34.81324 -92.07948 4068 ft 111 kts 265°
2026-05-08 05:59 34.81238 -92.08873 4102 ft 109 kts 264°
2026-05-08 05:59 34.81138 -92.09791 4121 ft 109 kts 269°
2026-05-08 05:59 34.81161 -92.10716 4142 ft 108 kts 274°
2026-05-08 06:00 34.81189 -92.11650 4107 ft 110 kts 273°
2026-05-08 06:00 34.81145 -92.12564 4131 ft 107 kts 265°
2026-05-08 06:00 34.81079 -92.13457 4139 ft 106 kts 268°
2026-05-08 06:00 34.81043 -92.14367 4153 ft 105 kts 272°
2026-05-08 06:01 34.81379 -92.15142 4133 ft 110 kts 321°
2026-05-08 06:01 34.82116 -92.15303 4182 ft 112 kts 10°
2026-05-08 06:01 34.82759 -92.14718 4119 ft 123 kts 56°
2026-05-08 06:01 34.82899 -92.13701 4114 ft 123 kts 99°
2026-05-08 06:02 34.82702 -92.12695 4131 ft 122 kts 104°
2026-05-08 06:02 34.82503 -92.11695 4162 ft 121 kts 103°
2026-05-08 06:02 34.82321 -92.10684 4137 ft 124 kts 102°
2026-05-08 06:02 34.82138 -92.09639 4074 ft 127 kts 102°
2026-05-08 06:03 34.82172 -92.08587 4048 ft 126 kts 66°
2026-05-08 06:03 34.82689 -92.07736 4017 ft 124 kts 47°
2026-05-08 06:03 34.83225 -92.06909 3976 ft 125 kts 51°
2026-05-08 06:03 34.83759 -92.06096 3999 ft 121 kts 48°
2026-05-08 06:04 34.84310 -92.05321 4027 ft 119 kts 47°
2026-05-08 06:04 34.84868 -92.04575 4017 ft 120 kts 44°
2026-05-08 06:04 34.85440 -92.03842 4037 ft 119 kts 43°
2026-05-08 06:04 34.86018 -92.03110 4062 ft 117 kts 43°
2026-05-08 06:05 34.86595 -92.02387 4065 ft 120 kts 44°
2026-05-08 06:05 34.87160 -92.01633 4078 ft 120 kts 42°
2026-05-08 06:05 34.87889 -92.01239 4082 ft 115 kts
2026-05-08 06:05 34.88699 -92.01149 4080 ft 116 kts 359°
2026-05-08 06:06 34.89519 -92.01097 4044 ft 119 kts
2026-05-08 06:06 34.90349 -92.01013 4053 ft 118 kts
2026-05-08 06:06 34.91175 -92.00935 4029 ft 119 kts 360°
2026-05-08 06:06 34.91977 -92.01009 4061 ft 113 kts 333°
2026-05-08 06:07 34.92474 -92.01695 4084 ft 109 kts 285°
2026-05-08 06:07 34.92332 -92.02567 4116 ft 110 kts 234°
2026-05-08 06:07 34.92046 -92.02850 4127 ft 112 kts 211°
2026-05-08 06:09 34.91445 -92.02986 4158 ft 114 kts 182°
2026-05-08 06:09 34.90639 -92.02985 4182 ft 115 kts 182°
2026-05-08 06:10 34.89838 -92.02979 4209 ft 116 kts 183°
2026-05-08 06:10 34.89018 -92.02999 4231 ft 116 kts 185°
2026-05-08 06:10 34.88201 -92.03037 4253 ft 116 kts 185°
2026-05-08 06:10 34.87391 -92.03076 4233 ft 116 kts 186°
2026-05-08 06:11 34.86579 -92.03200 4024 ft 118 kts 206°
2026-05-08 06:11 34.85928 -92.03804 3820 ft 117 kts 222°
2026-05-08 06:11 34.85302 -92.04446 3634 ft 117 kts 223°
2026-05-08 06:11 34.84710 -92.05092 3505 ft 112 kts 224°
2026-05-08 06:12 34.84156 -92.05741 3339 ft 110 kts 226°
2026-05-08 06:12 34.83610 -92.06391 3138 ft 110 kts 226°
2026-05-08 06:12 34.83068 -92.07059 2930 ft 111 kts 226°
2026-05-08 06:12 34.82555 -92.07750 2763 ft 109 kts 229°
2026-05-08 06:13 34.82057 -92.08447 2583 ft 109 kts 228°
2026-05-08 06:13 34.81550 -92.09140 2398 ft 110 kts 228°
2026-05-08 06:13 34.81050 -92.09853 2197 ft 111 kts 228°
2026-05-08 06:13 34.80557 -92.10563 1991 ft 111 kts 226°
2026-05-08 06:14 34.80056 -92.11261 1826 ft 99 kts 227°
2026-05-08 06:14 34.79657 -92.11859 1831 ft 85 kts 223°
2026-05-08 06:14 34.79242 -92.12362 1844 ft 82 kts 220°
2026-05-08 06:14 34.78832 -92.12861 1839 ft 86 kts 223°
2026-05-08 06:15 34.78445 -92.13412 1756 ft 88 kts 226°
2026-05-08 06:15 34.78045 -92.14006 1613 ft 90 kts 224°
2026-05-08 06:15 34.77627 -92.14574 1508 ft 89 kts 225°
2026-05-08 06:15 34.77200 -92.15121 1384 ft 90 kts 224°
2026-05-08 06:16 34.76779 -92.15691 1282 ft 89 kts 226°
2026-05-08 06:16 34.76365 -92.16254 1170 ft 90 kts 225°
2026-05-08 06:16 34.75950 -92.16825 1063 ft 89 kts 229°
2026-05-08 06:16 34.75556 -92.17406 938 ft 88 kts 228°
2026-05-08 06:17 34.74894 -92.18360 698 ft 68 kts 227°
2026-05-08 06:17 34.74582 -92.18759 617 ft 65 kts 223°
2026-05-08 06:17 34.74258 -92.19146 520 ft 65 kts 226°
2026-05-08 06:18 34.73951 -92.19553 434 ft 66 kts 225°
2026-05-08 06:18 34.73629 -92.19961 352 ft 67 kts 226°
2026-05-08 06:18 34.73299 -92.20382 263 ft 66 kts 227°
2026-05-08 06:18 34.73049 -92.20703 258 ft 38 kts 227°
2026-05-08 06:19 34.72912 -92.20881 257 ft 21 kts 226°
2026-05-08 06:19 34.72842 -92.20999 257 ft 15 kts 239°
2026-05-08 06:19 34.72800 -92.21115 258 ft 13 kts 255°
2026-05-08 06:19 34.72797 -92.21197 258 ft 4 kts 287°
2026-05-08 06:20 34.72798 -92.21202 258 ft 0 kts 287°
2026-05-08 06:21 34.72798 -92.21203 258 ft 0 kts 287°
2026-05-08 06:21 34.72820 -92.21261 258 ft 13 kts 294°
2026-05-08 06:22 34.72874 -92.21404 258 ft 22 kts 293°
2026-05-08 06:22 34.72935 -92.21573 259 ft 19 kts 292°
2026-05-08 06:22 34.72987 -92.21710 259 ft 17 kts 295°
2026-05-08 06:22 34.73015 -92.21832 259 ft 13 kts 253°
2026-05-08 06:23 34.72996 -92.21899 259 ft 3 kts 255°
2026-05-08 06:23 34.72997 -92.21922 259 ft 0 kts 288°
2026-05-08 06:23 34.73001 -92.21933 259 ft 0 kts 289°
2026-05-08 06:23 34.73002 -92.21938 259 ft 0 kts 290°